Flag for Ukraine Weather past 2 weeks in Luhansk, Ukraine

Now
72 °F

Thunderstorms. Partly sunny.


Feels Like: 71 °F
Forecast: 66 / 83 °F
Wind: 8 mph from South

Location: Rostov-Na-Donu

Current Time: Jul 28, 2015 at 5:09:53 PM

Latest Report: Jul 28, 2015 at 4:30 PM


Visibility: N/A

Pressure: 29.71 "Hg

Humidity: 83%

Dew point: 66 °F

Location of LuhanskLocation

Historic Weather in Luhansk — Graph

°F

Luhansk temperature yesterday

Maximum temperature yesterday: 97 °F (at 1:00 PM)
Minimum temperature yesterday: 70 °F (at 4:30 AM)
Average temperature yesterday: 86 °F

Past Weeks' High & Low Weather Summary

 TemperatureHumidityPressure
High97 °F (Jul 25, 2:00 PM)94% (Jul 16, 4:30 AM)30.04 "Hg (Jul 16, 4:30 AM)
Low57 °F (Jul 19, 5:00 AM)19% (Jul 26, 1:30 PM)29.65 "Hg (Jul 27, 7:30 PM)
Average75 °F54%29.89 "Hg
* Reported Jul 13 3:00 PM — Jul 28 3:30 PM, Luhansk, Weather by CustomWeather, © 2015

Note: Actual official high and low records may vary slightly from our data, if they occured in-between our weather recording intervals... More about our weather records

Advertising

Luhansk weather history for previous 24 hours

 ConditionsComfort  
Time TempWeatherWind HumidityBarometerVisibility
3:30 PM
Tue, Jul 28
72 °FThunderstorms. Partly sunny.8 mph83%29.74 "Hg4 mi
3:00 PM72 °FThunderstorms. Broken clouds.3 mph83%29.74 "HgN/A
2:30 PM75 °FThunderstorms. Broken clouds.15 mph74%29.77 "HgN/A
2:00 PM79 °FPartly sunny.6 mph65%29.74 "HgN/A
1:30 PM77 °FPassing clouds.6 mph69%29.74 "HgN/A
1:00 PM77 °FBroken clouds.3 mph69%29.74 "HgN/A
12:30 PM75 °FBroken clouds.3 mph78%29.71 "HgN/A
12:00 PM75 °FSprinkles. Broken clouds.6 mph78%29.71 "HgN/A
11:30 AM75 °FBroken clouds.6 mph74%29.74 "HgN/A
11:00 AM73 °FSprinkles. Broken clouds.6 mph78%29.74 "HgN/A
10:30 AM72 °FSprinkles. Broken clouds.1 mph83%29.74 "HgN/A
10:00 AM72 °FSprinkles. Broken clouds.3 mph78%29.71 "HgN/A
9:30 AM72 °FThunderstorms. Partly sunny.6 mph73%29.71 "Hg4 mi
9:00 AM72 °FThunderstorms. Partly sunny.8 mph83%29.71 "Hg5 mi
8:30 AM72 °FThunderstorms. Partly sunny.13 mph83%29.71 "HgN/A
8:00 AM73 °FThunderstorms. Broken clouds.17 mph83%29.71 "HgN/A
7:30 AM73 °FThunderstorms. Broken clouds.10 mph83%29.74 "HgN/A
7:00 AM73 °FThunderstorms. Broken clouds.8 mph78%29.71 "HgN/A
6:30 AM72 °FPartly sunny.3 mph69%29.68 "HgN/A
6:00 AM72 °FPassing clouds.3 mph69%29.68 "HgN/A
5:30 AM72 °FPassing clouds.6 mph69%29.68 "HgN/A
5:00 AM72 °FPassing clouds.6 mph65%29.68 "HgN/A
4:30 AM72 °FClear.8 mph65%29.65 "HgN/A
4:00 AM73 °FClear.8 mph61%29.65 "HgN/A
3:30 AM73 °FClear.6 mph61%29.65 "HgN/A
3:00 AM73 °FClear.3 mph57%29.65 "HgN/A
2:30 AM73 °FClear.3 mph57%29.65 "HgN/A
2:00 AM72 °FClear.3 mph61%29.65 "HgN/A
1:30 AM73 °FClear.6 mph57%29.65 "HgN/A
1:00 AM75 °FClear.8 mph54%29.65 "HgN/A
12:30 AM77 °FClear.6 mph51%29.65 "HgN/A
12:00 AM79 °FClear.6 mph48%29.68 "HgN/A
11:30 PM
Mon, Jul 27
82 °FClear.10 mph37%29.65 "HgN/A
11:00 PM82 °FClear.10 mph40%29.65 "HgN/A
10:30 PM82 °FClear.8 mph40%29.68 "HgN/A
10:00 PM84 °FClear.8 mph37%29.68 "HgN/A
9:30 PM82 °FClear.6 mph40%29.68 "HgN/A
9:00 PM84 °FClear.3 mph35%29.68 "HgN/A
8:30 PM86 °FClear.6 mph33%29.68 "Hg5 mi
8:00 PM88 °FSunny.3 mph31%29.65 "Hg10 mi
7:30 PM90 °FSunny.6 mph29%29.65 "Hg10 mi
7:00 PM91 °FSunny.8 mph28%29.68 "Hg10 mi
6:30 PM93 °FPassing clouds.8 mph24%29.68 "HgN/A
6:00 PM95 °FPassing clouds.8 mph25%29.68 "HgN/A
5:30 PM97 °FPassing clouds.10 mph23%29.68 "HgN/A
5:00 PM97 °FScattered clouds.10 mph22%29.68 "HgN/A
Weather by CustomWeather, © 2015

See weather overviewHow to use our weather pages